Flag for U.S.A. Weather past 2 weeks in Spartanburg, South Carolina, U.S.A.

Now
91 °F

Scattered clouds.


Feels Like: 92 °F
Forecast: 69 / 93 °F
Wind: 5 mph from West

Location: Spartanburg Memorial

Current Time: Sep 2, 2015 at 3:35:31 PM

Latest Report: Sep 2, 2015 at 3:15 PM


Visibility: 10 mi

Pressure: 30.04 "Hg

Humidity: 38%

Dew point: 63 °F

Location of SpartanburgLocation

Historic Weather in Spartanburg — Graph

°F

Spartanburg temperature yesterday

Maximum temperature yesterday: 91 °F (at 1:35 PM)
Minimum temperature yesterday: 66 °F (at 6:55 AM)
Average temperature yesterday: 79 °F

Past Weeks' High & Low Weather Summary

 TemperatureHumidityPressure
High91 °F (Aug 24, 3:15 PM)100% (Aug 24, 2:15 AM)30.25 "Hg (Aug 24, 2:15 AM)
Low63 °F (Aug 29, 4:55 AM)29% (Aug 28, 6:15 PM)29.86 "Hg (Aug 25, 5:35 PM)
Average77 °F68%30.05 "Hg
* Reported Aug 18 2:15 PM — Sep 2 2:15 PM, Spartanburg, Weather by CustomWeather, © 2015

Note: Actual official high and low records may vary slightly from our data, if they occured in-between our weather recording intervals... More about our weather records

Advertising

Spartanburg weather history for previous 24 hours

 ConditionsComfort  
Time TempWeatherWind HumidityBarometerVisibility
2:15 PM
Wed, Sep 2
91 °FSunny.No wind38%30.07 "Hg10 mi
1:35 PM90 °FSunny.6 mph41%30.08 "Hg10 mi
1:15 PM90 °FSunny.3 mph43%30.09 "Hg10 mi
12:55 PM90 °FSunny.No wind41%30.09 "Hg10 mi
12:35 PM90 °FSunny.5 mph43%30.10 "Hg10 mi
12:15 PM90 °FSunny.5 mph43%30.11 "Hg10 mi
11:55 AM88 °FSunny.No wind49%30.11 "Hg10 mi
11:35 AM88 °FSunny.No wind49%30.11 "Hg10 mi
11:15 AM86 °FSunny.5 mph52%30.12 "Hg10 mi
10:55 AM86 °FSunny.3 mph52%30.12 "Hg10 mi
10:35 AM86 °FSunny.3 mph52%30.12 "Hg10 mi
10:15 AM84 °FSunny.3 mph55%30.12 "Hg10 mi
9:55 AM82 °FSunny.No wind62%30.12 "Hg10 mi
8:35 AM73 °FSunny.No wind89%30.12 "Hg10 mi
8:15 AM72 °FSunny.No wind88%30.12 "Hg10 mi
7:55 AM70 °FClear.No wind94%30.12 "Hg10 mi
7:35 AM70 °FClear.No wind88%30.12 "Hg10 mi
7:15 AM68 °FClear.No wind94%30.11 "Hg10 mi
6:55 AM70 °FClear.No wind94%30.10 "Hg10 mi
6:35 AM70 °FClear.No wind94%30.10 "Hg10 mi
6:15 AM70 °FClear.No wind94%30.10 "Hg10 mi
5:55 AM70 °FClear.No wind94%30.09 "Hg10 mi
5:35 AM70 °FClear.No wind94%30.09 "Hg10 mi
5:15 AM70 °FClear.No wind94%30.09 "Hg10 mi
4:35 AM72 °FClear.No wind88%30.09 "Hg10 mi
4:15 AM72 °FClear.No wind88%30.09 "Hg10 mi
3:55 AM72 °FClear.No wind88%30.09 "Hg10 mi
3:35 AM72 °FClear.No wind88%30.09 "Hg10 mi
3:15 AM72 °FClear.No wind88%30.09 "Hg10 mi
2:55 AM72 °FClear.No wind88%30.09 "Hg10 mi
2:35 AM72 °FClear.No wind88%30.10 "Hg10 mi
2:15 AM72 °FClear.No wind88%30.10 "Hg10 mi
1:55 AM72 °FClear.No wind88%30.10 "Hg10 mi
1:35 AM73 °FClear.No wind83%30.11 "Hg10 mi
1:15 AM73 °FClear.No wind83%30.10 "Hg10 mi
12:35 AM73 °FClear.No wind83%30.10 "Hg10 mi
12:15 AM75 °FClear.No wind78%30.10 "Hg10 mi
11:55 PM
Tue, Sep 1
77 °FClear.No wind74%30.11 "Hg10 mi
11:15 PM75 °FClear.No wind78%30.10 "Hg10 mi
10:55 PM77 °FClear.No wind74%30.10 "Hg10 mi
10:35 PM79 °FClear.No wind70%30.10 "Hg10 mi
10:15 PM79 °FClear.3 mph70%30.10 "Hg10 mi
9:35 PM81 °FClear.No wind66%30.09 "Hg10 mi
9:15 PM81 °FClear.3 mph66%30.09 "Hg10 mi
8:35 PM82 °FSunny.5 mph58%30.08 "Hg10 mi
8:15 PM82 °FSunny.5 mph58%30.08 "Hg10 mi
7:35 PM88 °FSunny.No wind49%30.07 "Hg10 mi
7:15 PM88 °FSunny.3 mph46%30.07 "Hg10 mi
6:55 PM90 °FSunny.6 mph43%30.07 "Hg10 mi
5:35 PM90 °FScattered clouds.3 mph41%30.06 "Hg10 mi
5:15 PM91 °FPartly sunny.3 mph38%30.07 "Hg10 mi
4:35 PM91 °FPartly sunny.No wind38%30.07 "Hg7 mi
4:15 PM91 °FSunny.No wind36%30.07 "Hg4 mi
3:35 PM91 °FScattered clouds.No wind38%30.09 "Hg7 mi
3:15 PM91 °FScattered clouds.No wind38%30.09 "Hg10 mi
Weather by CustomWeather, © 2015

See weather overviewHow to use our weather pages